| time (UTC) | temp F | wind direction | speed MPH | gust MPH | rain 1hr in | rain 24hr in | rain mn in | humidity % | barometer mb |
| 20260831233425 | 72 | 356 | 7.0 | 9.0 | 0.00 | 0.00 | 0.25 | 83 | 1015.7 |
| 20260831232745 | 72 | 353 | 6.0 | 6.0 | 0.00 | 0.00 | 0.25 | 83 | 1015.8 |
| 20260831231954 | 72 | 352 | 5.0 | 10.0 | 0.00 | 0.00 | 0.25 | 82 | 1015.6 |
| 20260831231314 | 0 | 355 | 6.0 | 8.0 | 0.00 | 0.00 | 0.25 | ||
| 20260831230524 | 73 | 354 | 6.0 | 9.0 | 0.00 | 0.00 | 0.25 | 83 | 1015.7 |
| 20260831225844 | 0 | 355 | 4.0 | 6.0 | 0.00 | 0.00 | 0.25 | ||
| 20260831224727 | 73 | 353 | 2.0 | 9.0 | 0.00 | 0.00 | 0.25 | 83 | 1016.0 |
| 20260831224058 | 0 | 354 | 6.0 | 5.0 | 0.00 | 0.00 | 0.25 | ||
| 20260831223258 | 0 | 358 | 5.0 | 6.0 | 0.00 | 0.00 | 0.25 | ||
| 20260831222505 | 73 | 352 | 9.0 | 7.0 | 0.00 | 0.00 | 0.25 | 80 | 1016.1 |
| 20260831221430 | 73 | 358 | 5.0 | 3.0 | 0.00 | 0.00 | 0.25 | 81 | 1016.1 |
| 20260831220637 | 74 | 355 | 3.0 | 10.0 | 0.00 | 0.00 | 0.25 | 80 | 1016.4 |
| 20260831215957 | 74 | 354 | 7.0 | 10.0 | 0.00 | 0.00 | 0.25 | 80 | 1016.4 |
| 20260831215317 | 74 | 355 | 6.0 | 11.0 | 0.00 | 0.00 | 0.25 | 80 | 1016.4 |
| 20260831214636 | 74 | 355 | 6.0 | 11.0 | 0.00 | 0.00 | 0.25 | 81 | 1016.4 |
| 20260831213956 | 73 | 356 | 7.0 | 12.0 | 0.00 | 0.00 | 0.25 | 83 | 1016.4 |
| 20260831213316 | 73 | 351 | 7.0 | 15.0 | 0.00 | 0.00 | 0.25 | 84 | 1016.3 |
| 20260831212642 | 74 | 353 | 9.0 | 15.0 | 0.00 | 0.00 | 0.25 | 84 | 1016.4 |
| 20260831212002 | 74 | 353 | 9.0 | 14.0 | 0.00 | 0.00 | 0.25 | 84 | 1016.4 |
| 20260831211322 | 74 | 355 | 7.0 | 11.0 | 0.00 | 0.00 | 0.25 | 84 | 1016.3 |
| 20260831210647 | 0 | 355 | 7.0 | 6.0 | 0.00 | 0.00 | 0.25 | ||
| 20260831205906 | 74 | 356 | 7.0 | 14.0 | 0.00 | 0.00 | 0.25 | 85 | 1016.1 |
| 20260831205230 | 74 | 350 | 6.0 | 12.0 | 0.00 | 0.00 | 0.25 | 85 | 1016.0 |
| 20260831204550 | 74 | 357 | 7.0 | 11.0 | 0.00 | 0.00 | 0.25 | 84 | 1016.0 |
| 20260831203905 | 74 | 353 | 8.0 | 7.0 | 0.00 | 0.00 | 0.25 | 85 | 1016.0 |
| 20260831203207 | 73 | 353 | 8.0 | 14.0 | 0.00 | 0.00 | 0.25 | 86 | 1015.9 |
| 20260831202517 | 73 | 356 | 5.0 | 14.0 | 0.00 | 0.00 | 0.25 | 87 | 1015.9 |
| 20260831201837 | 73 | 357 | 8.0 | 14.0 | 0.00 | 0.00 | 0.25 | 86 | 1016.1 |
| 20260831201157 | 73 | 355 | 5.0 | 10.0 | 0.00 | 0.00 | 0.25 | 86 | 1016.2 |
| 20260831200523 | 0 | 355 | 6.0 | 7.0 | 0.00 | 0.00 | 0.25 | ||
| 20260831195728 | 74 | 354 | 9.0 | 15.0 | 0.00 | 0.00 | 0.25 | 83 | 1016.3 |
| 20260831195048 | 74 | 357 | 6.0 | 9.0 | 0.00 | 0.00 | 0.25 | 82 | 1016.2 |
| 20260831194423 | 74 | 357 | 0.0 | 5.0 | 0.00 | 0.00 | 0.25 | 81 | 1016.3 |
| 20260831193728 | 0 | 353 | 0.0 | 3.0 | 0.00 | 0.00 | 0.25 | ||
| 20260831192707 | 0 | 350 | 0.0 | 4.0 | 0.00 | 0.00 | 0.25 | ||
| 20260831191912 | 74 | 357 | 0.0 | 0.0 | 0.00 | 0.00 | 0.25 | 79 | 1016.5 |
| 20260831191227 | 0 | 357 | 0.0 | 0.0 | 0.00 | 0.00 | 0.25 | ||
| 20260831190428 | 74 | 355 | 0.0 | 0.0 | 0.00 | 0.00 | 0.25 | 81 | 1016.6 |
| 20260831185747 | 73 | 355 | 0.0 | 0.0 | 0.00 | 0.00 | 0.25 | 81 | 1016.6 |
| 20260831185106 | 73 | 355 | 0.0 | 0.0 | 0.00 | 0.00 | 0.25 | 82 | 1016.7 |
| 20260831184426 | 73 | 354 | 0.0 | 0.0 | 0.00 | 0.00 | 0.25 | 83 | 1016.8 |
| 20260831183747 | 73 | 357 | 0.0 | 0.0 | 0.00 | 0.00 | 0.25 | 84 | 1016.8 |
| 20260831183107 | 73 | 353 | 0.0 | 0.0 | 0.00 | 0.00 | 0.25 | 83 | 1016.8 |
| 20260831182438 | 73 | 356 | 0.0 | 0.0 | 0.00 | 0.00 | 0.25 | 80 | 1016.8 |
| 20260831181748 | 0 | 355 | 0.0 | 2.0 | 0.00 | 0.00 | 0.25 | ||
| 20260831180957 | 73 | 350 | 0.0 | 0.0 | 0.00 | 0.00 | 0.25 | 80 | 1017.0 |
| 20260831180318 | 0 | 357 | 0.0 | 0.0 | 0.00 | 0.00 | 0.25 | ||
| 20260831175058 | 74 | 355 | 0.0 | 7.0 | 0.00 | 0.00 | 0.25 | 76 | 1017.1 |
| 20260831174414 | 0 | 354 | 2.0 | 5.0 | 0.00 | 0.00 | 0.25 | ||
| 20260831173515 | 74 | 354 | 0.0 | 4.0 | 0.00 | 0.00 | 0.25 | 77 | 1016.9 |
| 20260831172826 | 0 | 354 | 0.0 | 0.0 | 0.00 | 0.00 | 0.25 | ||
| 20260831171600 | 74 | 356 | 1.0 | 9.0 | 0.00 | 0.00 | 0.25 | 75 | 1016.9 |
| 20260831170918 | 74 | 352 | 3.0 | 9.0 | 0.00 | 0.00 | 0.25 | 77 | 1017.0 |
| 20260831170239 | 0 | 356 | 0.0 | 8.0 | 0.00 | 0.00 | 0.25 | ||
| 20260831165320 | 73 | 353 | 0.0 | 6.0 | 0.00 | 0.00 | 0.25 | 77 | 1017.3 |
| 20260831164515 | 73 | 357 | 1.0 | 7.0 | 0.00 | 0.00 | 0.25 | 80 | 1017.3 |
| 20260831163720 | 72 | 356 | 0.0 | 0.0 | 0.00 | 0.00 | 0.25 | 84 | 1017.2 |
| 20260831162923 | 71 | 358 | 0.0 | 0.0 | 0.00 | 0.00 | 0.25 | 87 | 1017.3 |
| 20260831162232 | 70 | 358 | 0.0 | 6.0 | 0.00 | 0.00 | 0.25 | 88 | 1017.3 |
| 20260831161553 | 0 | 357 | 1.0 | 6.0 | 0.00 | 0.00 | 0.25 | ||
| 20260831160513 | 68 | 356 | 0.0 | 2.0 | 0.00 | 0.00 | 0.25 | 88 | 1017.7 |
| 20260831155823 | 68 | 358 | 0.0 | 0.0 | 0.00 | 0.00 | 0.25 | 88 | 1017.8 |
| 20260831155143 | 0 | 356 | 0.0 | 0.0 | 0.00 | 0.00 | 0.24 | ||
| 20260831154403 | 68 | 355 | 0.0 | 0.0 | 0.00 | 0.00 | 0.24 | 91 | 1017.8 |
| 20260831153714 | 0 | 350 | 0.0 | 0.0 | 0.00 | 0.00 | 0.24 | ||
| 20260831152928 | 0 | 354 | 0.0 | 0.0 | 0.00 | 0.00 | 0.24 | ||
| 20260831152133 | 0 | 356 | 0.0 | 0.0 | 0.00 | 0.00 | 0.23 | ||
| 20260831151314 | 68 | 354 | 0.0 | 0.0 | 0.00 | 0.00 | 0.23 | 92 | 1017.9 |
| 20260831150634 | 0 | 356 | 0.0 | 0.0 | 0.00 | 0.00 | 0.22 | ||
| 20260831145830 | 0 | 357 | 0.0 | 0.0 | 0.00 | 0.00 | 0.21 | ||
| 20260831145039 | 67 | 355 | 0.0 | 0.0 | 0.00 | 0.00 | 0.20 | 93 | 1017.5 |
| 20260831144359 | 67 | 358 | 0.0 | 0.0 | 0.00 | 0.00 | 0.19 | 92 | 1017.6 |
| 20260831143729 | 67 | 356 | 0.0 | 0.0 | 0.00 | 0.00 | 0.18 | 92 | 1017.7 |
| 20260831143040 | 0 | 356 | 0.0 | 0.0 | 0.00 | 0.00 | 0.17 | ||
| 20260831142228 | 0 | 355 | 0.0 | 0.0 | 0.00 | 0.00 | 0.16 | ||
| 20260831141453 | 0 | 357 | 0.0 | 0.0 | 0.00 | 0.00 | 0.12 | ||
| 20260831140649 | 0 | 355 | 0.0 | 0.0 | 0.00 | 0.00 | 0.11 | ||
| 20260831135830 | 0 | 355 | 0.0 | 0.0 | 0.00 | 0.00 | 0.10 | ||
| 20260831134753 | 66 | 355 | 0.0 | 6.0 | 0.00 | 0.00 | 0.09 | 90 | 1017.6 |
| 20260831134113 | 0 | 355 | 2.0 | 5.0 | 0.00 | 0.00 | 0.09 | ||
| 20260831133323 | 67 | 358 | 0.0 | 9.0 | 0.00 | 0.00 | 0.09 | 89 | 1017.7 |
| 20260831132644 | 67 | 356 | 1.0 | 9.0 | 0.00 | 0.00 | 0.09 | 90 | 1017.6 |
| 20260831132003 | 67 | 358 | 2.0 | 8.0 | 0.00 | 0.00 | 0.09 | 89 | 1017.6 |
| 20260831131323 | 67 | 358 | 3.0 | 8.0 | 0.00 | 0.00 | 0.09 | 89 | 1017.6 |
| 20260831130645 | 67 | 351 | 5.0 | 8.0 | 0.00 | 0.00 | 0.09 | 88 | 1017.7 |
| 20260831130008 | 67 | 359 | 0.0 | 0.0 | 0.00 | 0.00 | 0.09 | 88 | 1017.7 |
| 20260831125323 | 67 | 356 | 0.0 | 0.0 | 0.00 | 0.00 | 0.09 | 87 | 1017.5 |
| 20260831124654 | 0 | 355 | 0.0 | 2.0 | 0.00 | 0.00 | 0.09 | ||
| 20260831123936 | 67 | 360 | 0.0 | 5.0 | 0.00 | 0.00 | 0.09 | 87 | 1017.4 |
| 20260831123256 | 67 | 356 | 0.0 | 5.0 | 0.00 | 0.00 | 0.09 | 88 | 1017.4 |
| 20260831122616 | 67 | 357 | 0.0 | 0.0 | 0.00 | 0.00 | 0.09 | 88 | 1017.4 |
| 20260831121936 | 67 | 356 | 0.0 | 0.0 | 0.00 | 0.00 | 0.09 | 89 | 1017.4 |
| 20260831121256 | 67 | 357 | 0.0 | 0.0 | 0.00 | 0.00 | 0.09 | 89 | 1017.5 |
| 20260831120626 | 0 | 352 | 0.0 | 0.0 | 0.00 | 0.00 | 0.09 | ||
| 20260831115800 | 67 | 357 | 0.0 | 0.0 | 0.00 | 0.00 | 0.09 | 89 | 1017.9 |
| 20260831115119 | 66 | 357 | 0.0 | 0.0 | 0.00 | 0.00 | 0.09 | 89 | 1017.9 |
| 20260831114439 | 66 | 357 | 0.0 | 0.0 | 0.00 | 0.00 | 0.09 | 89 | 1017.9 |
| 20260831113759 | 66 | 356 | 0.0 | 0.0 | 0.00 | 0.00 | 0.09 | 90 | 1017.9 |
| 20260831113119 | 66 | 358 | 0.0 | 0.0 | 0.00 | 0.00 | 0.09 | 89 | 1017.7 |
| 20260831112439 | 0 | 357 | 0.0 | 0.0 | 0.00 | 0.00 | 0.09 | ||
| 20260831111511 | 66 | 358 | 0.0 | 0.0 | 0.00 | 0.00 | 0.08 | 90 | 1017.7 |
| 20260831110830 | 66 | 354 | 0.0 | 0.0 | 0.00 | 0.00 | 0.08 | 89 | 1017.8 |
| 20260831110151 | 0 | 356 | 0.0 | 0.0 | 0.00 | 0.00 | 0.08 | ||
| 20260831105336 | 66 | 356 | 0.0 | 0.0 | 0.00 | 0.00 | 0.08 | 89 | 1017.9 |
| 20260831104647 | 66 | 355 | 0.0 | 0.0 | 0.00 | 0.00 | 0.08 | 89 | 1017.8 |
| 20260831104022 | 0 | 353 | 0.0 | 0.0 | 0.00 | 0.00 | 0.08 | ||
| 20260831103210 | 66 | 356 | 0.0 | 0.0 | 0.00 | 0.00 | 0.08 | 90 | 1018.0 |
| 20260831102530 | 66 | 357 | 0.0 | 0.0 | 0.00 | 0.00 | 0.08 | 89 | 1017.8 |
| 20260831101850 | 66 | 356 | 0.0 | 0.0 | 0.00 | 0.00 | 0.08 | 90 | 1017.7 |
| 20260831101211 | 66 | 354 | 0.0 | 2.0 | 0.00 | 0.00 | 0.08 | 90 | 1017.7 |
| 20260831100530 | 66 | 359 | 0.0 | 0.0 | 0.00 | 0.00 | 0.08 | 91 | 1017.7 |
| 20260831095850 | 66 | 356 | 0.0 | 0.0 | 0.00 | 0.00 | 0.08 | 91 | 1017.8 |
| 20260831095211 | 0 | 357 | 0.0 | 0.0 | 0.00 | 0.00 | 0.08 | ||
| 20260831094419 | 66 | 357 | 0.0 | 5.0 | 0.00 | 0.00 | 0.08 | 92 | 1017.8 |
| 20260831093740 | 66 | 356 | 0.0 | 4.0 | 0.00 | 0.00 | 0.08 | 92 | 1017.7 |
| 20260831093059 | 66 | 357 | 0.0 | 5.0 | 0.00 | 0.00 | 0.08 | 92 | 1017.7 |
| 20260831092420 | 66 | 359 | 0.0 | 5.0 | 0.00 | 0.00 | 0.08 | 92 | 1017.7 |
| 20260831091742 | 0 | 357 | 0.0 | 0.0 | 0.00 | 0.00 | 0.08 | ||
| 20260831090617 | 66 | 356 | 0.0 | 0.0 | 0.00 | 0.00 | 0.08 | 92 | 1017.7 |
| 20260831085938 | 65 | 358 | 0.0 | 0.0 | 0.00 | 0.00 | 0.08 | 92 | 1017.8 |
| 20260831085257 | 66 | 356 | 0.0 | 0.0 | 0.00 | 0.00 | 0.08 | 92 | 1017.9 |
| 20260831084616 | 66 | 355 | 0.0 | 0.0 | 0.00 | 0.00 | 0.08 | 92 | 1018.2 |
| 20260831083938 | 0 | 356 | 0.0 | 0.0 | 0.00 | 0.00 | 0.08 | ||
| 20260831083144 | 66 | 357 | 0.0 | 0.0 | 0.00 | 0.00 | 0.08 | 92 | 1018.1 |
| 20260831082504 | 65 | 356 | 0.0 | 0.0 | 0.00 | 0.00 | 0.08 | 92 | 1018.2 |
| 20260831081824 | 66 | 357 | 0.0 | 0.0 | 0.00 | 0.00 | 0.08 | 92 | 1018.1 |
| 20260831081145 | 0 | 355 | 0.0 | 0.0 | 0.00 | 0.00 | 0.08 | ||
| 20260831080355 | 66 | 355 | 0.0 | 0.0 | 0.00 | 0.00 | 0.08 | 92 | 1018.3 |
| 20260831075715 | 66 | 355 | 0.0 | 0.0 | 0.00 | 0.00 | 0.08 | 93 | 1018.4 |
| 20260831075035 | 66 | 356 | 0.0 | 0.0 | 0.00 | 0.00 | 0.07 | 93 | 1018.5 |
| 20260831074137 | 66 | 357 | 0.0 | 6.0 | 0.00 | 0.00 | 0.07 | 93 | 1018.5 |
| 20260831073457 | 0 | 352 | 0.0 | 3.0 | 0.00 | 0.00 | 0.07 | ||
| 20260831072707 | 66 | 360 | 0.0 | 3.0 | 0.00 | 0.00 | 0.07 | 95 | 1018.6 |
| 20260831072026 | 66 | 359 | 0.0 | 0.0 | 0.00 | 0.00 | 0.07 | 95 | 1018.8 |
| 20260831071347 | 66 | 355 | 0.0 | 0.0 | 0.00 | 0.00 | 0.07 | 95 | 1018.7 |
| 20260831070706 | 66 | 356 | 0.0 | 4.0 | 0.00 | 0.00 | 0.07 | 95 | 1018.8 |
| 20260831070027 | 0 | 357 | 0.0 | 2.0 | 0.00 | 0.00 | 0.06 | ||
| 20260831065237 | 66 | 358 | 0.0 | 0.0 | 0.00 | 0.00 | 0.06 | 95 | 1018.8 |
| 20260831064558 | 0 | 358 | 0.0 | 0.0 | 0.00 | 0.00 | 0.06 | ||
| 20260831063543 | 66 | 356 | 0.0 | 0.0 | 0.00 | 0.00 | 0.06 | 95 | 1018.9 |
| 20260831062903 | 66 | 356 | 0.0 | 0.0 | 0.00 | 0.00 | 0.06 | 95 | 1018.9 |
| 20260831062225 | 66 | 358 | 0.0 | 0.0 | 0.00 | 0.00 | 0.06 | 94 | 1018.8 |
| 20260831061544 | 66 | 358 | 0.0 | 0.0 | 0.00 | 0.00 | 0.06 | 94 | 1018.9 |
| 20260831060903 | 66 | 356 | 0.0 | 0.0 | 0.00 | 0.00 | 0.05 | 94 | 1019.0 |
| 20260831060224 | 0 | 356 | 0.0 | 0.0 | 0.00 | 0.00 | 0.05 | ||
| 20260831055434 | 67 | 356 | 0.0 | 0.0 | 0.00 | 0.00 | 0.04 | 94 | 1019.0 |
| 20260831054754 | 0 | 352 | 0.0 | 0.0 | 0.00 | 0.00 | 0.04 | ||
| 20260831053858 | 66 | 357 | 0.0 | 0.0 | 0.00 | 0.00 | 0.04 | 95 | 1019.0 |
| 20260831053220 | 66 | 357 | 0.0 | 0.0 | 0.00 | 0.00 | 0.04 | 95 | 1019.0 |
| 20260831052539 | 67 | 357 | 0.0 | 0.0 | 0.00 | 0.00 | 0.04 | 95 | 1019.0 |
| 20260831051900 | 0 | 358 | 0.0 | 0.0 | 0.00 | 0.00 | 0.04 | ||
| 20260831051111 | 66 | 358 | 0.0 | 0.0 | 0.00 | 0.00 | 0.04 | 96 | 1019.0 |
| 20260831050431 | 0 | 0 | 0.0 | 0.0 | 0.00 | 0.00 | 0.04 | ||
| 20260831045642 | 66 | 356 | 0.0 | 0.0 | 0.00 | 0.00 | 0.04 | 96 | 1019.1 |
| 20260831045002 | 66 | 358 | 0.0 | 0.0 | 0.00 | 0.00 | 0.04 | 97 | 1019.1 |
| 20260831044323 | 66 | 357 | 0.0 | 0.0 | 0.00 | 0.00 | 0.04 | 96 | 1019.1 |
| 20260831043642 | 0 | 357 | 0.0 | 0.0 | 0.00 | 0.00 | 0.04 | ||
| 20260831042850 | 0 | 356 | 0.0 | 0.0 | 0.00 | 0.00 | 0.04 | ||
| 20260831042059 | 66 | 353 | 0.0 | 0.0 | 0.00 | 0.00 | 0.04 | 96 | 1019.1 |
| 20260831041421 | 0 | 360 | 0.0 | 0.0 | 0.00 | 0.00 | 0.04 | ||
| 20260831040522 | 66 | 355 | 0.0 | 0.0 | 0.00 | 0.00 | 0.04 | 96 | 1019.0 |
| 20260831035842 | 66 | 356 | 0.0 | 0.0 | 0.00 | 0.00 | 0.04 | 97 | 1019.1 |
| 20260831035202 | 66 | 356 | 0.0 | 0.0 | 0.00 | 0.00 | 0.04 | 96 | 1019.1 |
| 20260831034522 | 0 | 354 | 0.0 | 0.0 | 0.00 | 0.00 | 0.04 | ||
| 20260831033621 | 0 | 357 | 0.0 | 0.0 | 0.00 | 0.00 | 0.04 | ||
| 20260831032831 | 66 | 356 | 0.0 | 0.0 | 0.00 | 0.00 | 0.03 | 96 | 1019.2 |
| 20260831032153 | 0 | 353 | 0.0 | 0.0 | 0.00 | 0.00 | 0.02 | ||
| 20260831031139 | 66 | 356 | 0.0 | 0.0 | 0.00 | 0.00 | 0.01 | 95 | 1019.4 |
| 20260831030459 | 66 | 356 | 0.0 | 0.0 | 0.00 | 0.00 | 0.18 | 94 | 1019.4 |
| 20260831025820 | 66 | 357 | 0.0 | 1.0 | 0.00 | 0.00 | 0.18 | 94 | 1019.5 |
| 20260831025140 | 66 | 358 | 0.0 | 0.0 | 0.00 | 0.00 | 0.18 | 94 | 1019.5 |
| 20260831024459 | 66 | 356 | 0.0 | 0.0 | 0.00 | 0.00 | 0.17 | 94 | 1019.4 |
| 20260831023819 | 66 | 357 | 0.0 | 0.0 | 0.00 | 0.00 | 0.17 | 94 | 1019.4 |
| 20260831023139 | 66 | 355 | 0.0 | 0.0 | 0.00 | 0.00 | 0.16 | 94 | 1019.4 |
| 20260831022459 | 66 | 355 | 0.0 | 0.0 | 0.00 | 0.00 | 0.16 | 93 | 1019.4 |
| 20260831021820 | 0 | 351 | 0.0 | 0.0 | 0.00 | 0.00 | 0.14 | ||
| 20260831020918 | 66 | 357 | 0.0 | 0.0 | 0.00 | 0.00 | 0.13 | 92 | 1019.6 |
| 20260831020239 | 0 | 354 | 0.0 | 0.0 | 0.00 | 0.00 | 0.11 | ||
| 20260831015421 | 0 | 357 | 0.0 | 0.0 | 0.00 | 0.00 | 0.10 | ||
| 20260831014631 | 67 | 357 | 0.0 | 0.0 | 0.00 | 0.00 | 0.10 | 90 | 1019.5 |
| 20260831013951 | 67 | 358 | 0.0 | 0.0 | 0.00 | 0.00 | 0.10 | 91 | 1019.6 |
| 20260831013312 | 67 | 355 | 0.0 | 0.0 | 0.00 | 0.00 | 0.10 | 91 | 1019.6 |
| 20260831012630 | 67 | 355 | 0.0 | 0.0 | 0.00 | 0.00 | 0.10 | 91 | 1019.4 |
| 20260831011951 | 67 | 357 | 0.0 | 0.0 | 0.00 | 0.00 | 0.10 | 91 | 1019.4 |
| 20260831011312 | 0 | 357 | 0.0 | 0.0 | 0.00 | 0.00 | 0.09 | ||
| 20260831010411 | 0 | 354 | 0.0 | 0.0 | 0.00 | 0.00 | 0.09 | ||
| 20260831005623 | 66 | 354 | 0.0 | 0.0 | 0.00 | 0.00 | 0.09 | 91 | 1019.3 |
| 20260831004943 | 67 | 356 | 0.0 | 0.0 | 0.00 | 0.00 | 0.09 | 91 | 1019.3 |
| 20260831004304 | 0 | 357 | 0.0 | 0.0 | 0.00 | 0.00 | 0.08 | ||
| 20260831003512 | 66 | 356 | 0.0 | 0.0 | 0.00 | 0.00 | 0.08 | 91 | 1019.2 |
| 20260831002831 | 66 | 356 | 0.0 | 0.0 | 0.00 | 0.00 | 0.08 | 91 | 1019.0 |
| 20260831002151 | 66 | 358 | 0.0 | 0.0 | 0.00 | 0.00 | 0.08 | 91 | 1019.0 |
| 20260831001512 | 66 | 355 | 0.0 | 0.0 | 0.00 | 0.00 | 0.08 | 90 | 1018.9 |
| 20260831000832 | 0 | 355 | 0.0 | 0.0 | 0.00 | 0.00 | 0.08 | ||
| 20260830235824 | 0 | 357 | 0.0 | 0.0 | 0.00 | 0.00 | 0.08 | ||
| 20260830235035 | 66 | 357 | 0.0 | 0.0 | 0.00 | 0.00 | 0.08 | 90 | 1018.8 |
| 20260830234355 | 66 | 360 | 0.0 | 0.0 | 0.00 | 0.00 | 0.08 | 90 | 1018.8 |